When you browse on this site, cookies collect data to enhance your experience and personalize the content and advertising you see.
Visit our Privacy Policy to learn more. By continuing to use the site, you agree to this use of cookies and data.
  • In Denmark
  • List of Countries
  • For 7 days
  • Water Temperature
  • Satellite Maps
  • Weather Map
  • Weather Widgets
  • user-avatar
    Login

    Hourly Weather Lemnos

    Today, 27 June, Thursday

    Time Temperature Precipitation Wind Pressure Humidity
    00:00 +27°C° 0 mm 11 mps 759 mmHg 77%
    01:00 +26°C° 0 mm 11 mps 759 mmHg 77%
    02:00 +26°C° 0 mm 11 mps 759 mmHg 77%
    03:00 +26°C° 0 mm 11 mps 758 mmHg 78%
    04:00 +26°C° 0 mm 11 mps 758 mmHg 79%
    05:00 +26°C° 0 mm 11 mps 758 mmHg 80%
    06:00 +26°C° 0 mm 11 mps 758 mmHg 78%
    07:00 +26°C° 0 mm 11 mps 758 mmHg 76%
    08:00 +26°C° 0 mm 11 mps 758 mmHg 74%
    09:00 +27°C° 0 mm 10 mps 758 mmHg 71%
    10:00 +27°C° 0 mm 10 mps 758 mmHg 68%
    11:00 +28°C° 0 mm 9 mps 758 mmHg 65%
    12:00 +28°C° 0 mm 8 mps 757 mmHg 62%
    13:00 +29°C° 0 mm 8 mps 757 mmHg 59%
    14:00 +29°C° 0 mm 7 mps 757 mmHg 56%
    15:00 +30°C° 0 mm 7 mps 756 mmHg 57%
    16:00 +30°C° 0 mm 6 mps 756 mmHg 57%
    17:00 +30°C° 0 mm 6 mps 755 mmHg 57%
    18:00 +29°C° 0 mm 5 mps 755 mmHg 59%
    19:00 +29°C° 0 mm 5 mps 755 mmHg 62%
    20:00 +28°C° 0 mm 4 mps 754 mmHg 64%
    21:00 +28°C° 0 mm 4 mps 755 mmHg 64%
    22:00 +27°C° 0 mm 3 mps 755 mmHg 63%
    23:00 +27°C° 0 mm 3 mps 755 mmHg 63%

    Tomorrow, 28 June, Friday

    Time Temperature Precipitation Wind Pressure Humidity
    00:00 +27°C° 0 mm 3 mps 755 mmHg 65%
    01:00 +26°C° 0 mm 3 mps 754 mmHg 68%
    02:00 +26°C° 0 mm 3 mps 754 mmHg 70%
    03:00 +26°C° 0 mm 3 mps 754 mmHg 70%
    04:00 +26°C° 0 mm 3 mps 754 mmHg 71%
    05:00 +26°C° 0 mm 3 mps 754 mmHg 71%
    06:00 +26°C° 0 mm 4 mps 754 mmHg 68%
    07:00 +27°C° 0 mm 4 mps 753 mmHg 64%
    08:00 +28°C° 0 mm 4 mps 753 mmHg 60%
    09:00 +28°C° 0 mm 4 mps 753 mmHg 61%
    10:00 +28°C° 0 mm 4 mps 753 mmHg 62%
    11:00 +28°C° 0 mm 4 mps 753 mmHg 63%
    12:00 +29°C° 0 mm 4 mps 753 mmHg 60%
    13:00 +29°C° 0 mm 3 mps 752 mmHg 57%
    14:00 +29°C° 0 mm 3 mps 752 mmHg 55%
    15:00 +30°C° 0 mm 3 mps 752 mmHg 54%
    16:00 +30°C° 0 mm 4 mps 752 mmHg 54%
    17:00 +32°C° 0 mm 4 mps 752 mmHg 53%
    18:00 +29°C° 0.1 mm 5 mps 752 mmHg 60%
    19:00 +28°C° 0.1 mm 6 mps 753 mmHg 66%
    20:00 +27°C° 0.1 mm 7 mps 753 mmHg 73%
    21:00 +27°C° 0 mm 8 mps 754 mmHg 74%
    22:00 +26°C° 0 mm 10 mps 754 mmHg 76%
    23:00 +26°C° 0 mm 11 mps 755 mmHg 77%

    Day after tomorrow, 29 June, Saturday

    Time Temperature Precipitation Wind Pressure Humidity
    00:00 +26°C° 0 mm 11 mps 755 mmHg 76%
    01:00 +26°C° 0 mm 12 mps 755 mmHg 75%
    02:00 +24°C° 0 mm 12 mps 755 mmHg 73%
    03:00 +24°C° 0 mm 12 mps 756 mmHg 73%
    04:00 +24°C° 0 mm 12 mps 756 mmHg 73%
    05:00 +24°C° 0 mm 12 mps 756 mmHg 72%
    06:00 +24°C° 0 mm 12 mps 756 mmHg 70%
    07:00 +23°C° 0 mm 12 mps 757 mmHg 68%
    08:00 +23°C° 0 mm 13 mps 757 mmHg 66%
    09:00 +23°C° 0 mm 12 mps 757 mmHg 63%
    10:00 +24°C° 0 mm 12 mps 758 mmHg 61%
    11:00 +24°C° 0 mm 11 mps 758 mmHg 58%
    12:00 +24°C° 0 mm 10 mps 758 mmHg 56%
    13:00 +26°C° 0 mm 9 mps 758 mmHg 54%
    14:00 +26°C° 0 mm 8 mps 758 mmHg 51%
    15:00 +27°C° 0 mm 8 mps 758 mmHg 52%
    16:00 +27°C° 0 mm 7 mps 758 mmHg 53%
    17:00 +27°C° 0 mm 6 mps 758 mmHg 54%
    18:00 +27°C° 0 mm 6 mps 758 mmHg 56%
    19:00 +27°C° 0 mm 7 mps 758 mmHg 59%
    20:00 +26°C° 0 mm 7 mps 758 mmHg 61%
    21:00 +26°C° 0 mm 8 mps 758 mmHg 60%
    22:00 +24°C° 0 mm 8 mps 759 mmHg 60%
    23:00 +23°C° 0 mm 9 mps 759 mmHg 59%

    30 June, Sunday

    Time Temperature Precipitation Wind Pressure Humidity
    00:00 +24°C° 0 mm 9 mps 759 mmHg 59%
    01:00 +24°C° 0 mm 9 mps 759 mmHg 59%
    02:00 +24°C° 0 mm 9 mps 759 mmHg 59%
    03:00 +24°C° 0 mm 9 mps 759 mmHg 59%
    04:00 +23°C° 0 mm 9 mps 759 mmHg 58%
    05:00 +23°C° 0 mm 8 mps 759 mmHg 58%
    06:00 +24°C° 0 mm 8 mps 759 mmHg 58%
    07:00 +24°C° 0 mm 8 mps 760 mmHg 57%
    08:00 +24°C° 0 mm 8 mps 760 mmHg 56%
    09:00 +24°C° 0 mm 8 mps 760 mmHg 56%
    10:00 +24°C° 0 mm 9 mps 761 mmHg 56%
    11:00 +26°C° 0 mm 9 mps 761 mmHg 56%
    12:00 +26°C° 0 mm 8 mps 761 mmHg 55%
    13:00 +27°C° 0 mm 8 mps 760 mmHg 54%
    14:00 +27°C° 0 mm 7 mps 760 mmHg 54%
    15:00 +27°C° 0 mm 7 mps 760 mmHg 53%
    16:00 +28°C° 0 mm 7 mps 760 mmHg 52%
    17:00 +28°C° 0 mm 7 mps 760 mmHg 51%
    18:00 +27°C° 0 mm 7 mps 760 mmHg 57%
    19:00 +27°C° 0 mm 6 mps 760 mmHg 63%
    20:00 +26°C° 0 mm 6 mps 760 mmHg 69%
    21:00 +26°C° 0 mm 6 mps 761 mmHg 67%
    22:00 +26°C° 0 mm 7 mps 761 mmHg 66%
    23:00 +24°C° 0 mm 7 mps 761 mmHg 64%

    1 July, Monday

    Time Temperature Precipitation Wind Pressure Humidity
    00:00 +24°C° 0 mm 7 mps 761 mmHg 65%
    01:00 +24°C° 0 mm 7 mps 761 mmHg 67%
    02:00 +24°C° 0 mm 8 mps 761 mmHg 68%
    03:00 +24°C° 0 mm 8 mps 761 mmHg 67%
    04:00 +24°C° 0 mm 8 mps 761 mmHg 66%
    05:00 +24°C° 0 mm 8 mps 761 mmHg 65%
    06:00 +24°C° 0 mm 8 mps 761 mmHg 64%
    07:00 +24°C° 0 mm 7 mps 761 mmHg 63%
    08:00 +24°C° 0 mm 7 mps 761 mmHg 62%
    09:00 +26°C° 0 mm 7 mps 761 mmHg 60%
    10:00 +26°C° 0 mm 6 mps 761 mmHg 59%
    11:00 +26°C° 0 mm 6 mps 761 mmHg 57%
    12:00 +27°C° 0 mm 6 mps 761 mmHg 55%
    13:00 +27°C° 0 mm 5 mps 760 mmHg 53%
    14:00 +28°C° 0 mm 5 mps 760 mmHg 51%
    15:00 +28°C° 0 mm 5 mps 759 mmHg 54%
    16:00 +28°C° 0 mm 5 mps 759 mmHg 56%
    17:00 +28°C° 0 mm 6 mps 759 mmHg 59%
    18:00 +27°C° 0 mm 5 mps 759 mmHg 61%
    19:00 +27°C° 0 mm 5 mps 759 mmHg 62%
    20:00 +27°C° 0 mm 4 mps 759 mmHg 64%
    21:00 +27°C° 0 mm 4 mps 759 mmHg 66%
    22:00 +26°C° 0 mm 5 mps 759 mmHg 67%
    23:00 +26°C° 0 mm 5 mps 759 mmHg 69%

    2 July, Tuesday

    Time Temperature Precipitation Wind Pressure Humidity
    00:00 +26°C° 0 mm 6 mps 758 mmHg 72%
    01:00 +26°C° 0 mm 6 mps 758 mmHg 74%
    02:00 +26°C° 0 mm 7 mps 758 mmHg 77%
    03:00 +26°C° 0 mm 7 mps 758 mmHg 75%
    04:00 +24°C° 0 mm 7 mps 758 mmHg 74%
    05:00 +24°C° 0 mm 8 mps 757 mmHg 72%
    06:00 +24°C° 0 mm 8 mps 757 mmHg 72%
    07:00 +24°C° 0 mm 8 mps 757 mmHg 71%
    08:00 +24°C° 0 mm 8 mps 757 mmHg 71%
    09:00 +26°C° 0 mm 8 mps 757 mmHg 69%
    10:00 +26°C° 0 mm 7 mps 757 mmHg 68%
    11:00 +26°C° 0 mm 7 mps 757 mmHg 66%
    12:00 +27°C° 0 mm 6 mps 757 mmHg 63%
    13:00 +28°C° 0 mm 5 mps 756 mmHg 60%
    14:00 +28°C° 0 mm 5 mps 756 mmHg 57%
    15:00 +29°C° 0 mm 4 mps 756 mmHg 57%
    16:00 +29°C° 0 mm 4 mps 755 mmHg 57%
    17:00 +29°C° 0 mm 4 mps 755 mmHg 57%
    18:00 +28°C° 0 mm 4 mps 755 mmHg 61%
    19:00 +28°C° 0 mm 4 mps 755 mmHg 65%
    20:00 +27°C° 0 mm 4 mps 755 mmHg 70%
    21:00 +27°C° 0 mm 4 mps 755 mmHg 67%
    22:00 +27°C° 0 mm 5 mps 755 mmHg 65%
    23:00 +28°C° 0 mm 5 mps 755 mmHg 63%
    Show more